• In Czech Republic
  • List of Countries
  • For 7 days
  • Water Temperature
  • Satellite Maps
  • Weather Map
  • Weather Widgets
  • user-avatar
    Login

    Hourly Weather Mamou

    Today, 17 October, Wednesday

    Time Temperature Precipitation Wind Pressure Humidity
    00:00 +30°C° 0 mm 1 mps 733 mmHg 31%
    01:00 +29°C° 0 mm 1 mps 733 mmHg 33%
    02:00 +28°C° 0 mm 1 mps 733 mmHg 34%
    03:00 +28°C° 0 mm 1 mps 733 mmHg 36%
    04:00 +27°C° 0 mm 1 mps 733 mmHg 37%
    05:00 +28°C° 0 mm 1 mps 733 mmHg 40%
    06:00 +28°C° 0 mm 1 mps 733 mmHg 42%
    07:00 +28°C° 0 mm 1 mps 734 mmHg 45%
    08:00 +31°C° 0 mm 1 mps 734 mmHg 40%
    09:00 +33°C° 0 mm 1 mps 734 mmHg 35%
    10:00 +37°C° 0 mm 2 mps 734 mmHg 30%
    11:00 +38°C° 0 mm 2 mps 734 mmHg 25%
    12:00 +40°C° 0 mm 2 mps 733 mmHg 20%
    13:00 +42°C° 0 mm 1 mps 732 mmHg 14%
    14:00 +41°C° 0 mm 1 mps 731 mmHg 14%
    15:00 +41°C° 0 mm 1 mps 731 mmHg 13%
    16:00 +41°C° 0 mm 1 mps 730 mmHg 12%
    17:00 +39°C° 0 mm 1 mps 730 mmHg 14%
    18:00 +35°C° 0 mm 1 mps 730 mmHg 17%
    19:00 +32°C° 0 mm 1 mps 731 mmHg 19%
    20:00 +32°C° 0 mm 1 mps 731 mmHg 23%
    21:00 +31°C° 0 mm 1 mps 732 mmHg 27%
    22:00 +30°C° 0 mm 2 mps 732 mmHg 31%
    23:00 +29°C° 0 mm 1 mps 732 mmHg 38%

    Tomorrow, 18 October, Thursday

    Time Temperature Precipitation Wind Pressure Humidity
    00:00 +29°C° 0 mm 1 mps 732 mmHg 45%
    01:00 +28°C° 0 mm 1 mps 732 mmHg 52%
    02:00 +28°C° 0 mm 1 mps 732 mmHg 59%
    03:00 +27°C° 0 mm 1 mps 732 mmHg 66%
    04:00 +27°C° 0 mm 1 mps 732 mmHg 73%
    05:00 +27°C° 0 mm 1 mps 732 mmHg 75%
    06:00 +27°C° 0 mm 1 mps 732 mmHg 77%
    07:00 +27°C° 0 mm 1 mps 733 mmHg 78%
    08:00 +30°C° 0 mm 2 mps 733 mmHg 67%
    09:00 +32°C° 0 mm 2 mps 733 mmHg 57%
    10:00 +36°C° 0 mm 2 mps 734 mmHg 46%
    11:00 +38°C° 0 mm 2 mps 733 mmHg 38%
    12:00 +39°C° 0 mm 1 mps 732 mmHg 29%
    13:00 +41°C° 0 mm 1 mps 731 mmHg 21%
    14:00 +41°C° 0 mm 2 mps 730 mmHg 19%
    15:00 +41°C° 0 mm 2 mps 729 mmHg 17%
    16:00 +41°C° 0 mm 2 mps 729 mmHg 15%
    17:00 +39°C° 0 mm 2 mps 729 mmHg 17%
    18:00 +36°C° 0 mm 2 mps 729 mmHg 20%
    19:00 +33°C° 0 mm 1 mps 729 mmHg 22%
    20:00 +32°C° 0 mm 1 mps 730 mmHg 24%
    21:00 +31°C° 0 mm 2 mps 731 mmHg 27%
    22:00 +30°C° 0 mm 2 mps 731 mmHg 29%
    23:00 +30°C° 0 mm 2 mps 731 mmHg 35%

    Day after tomorrow, 19 October, Friday

    Time Temperature Precipitation Wind Pressure Humidity
    00:00 +29°C° 0 mm 2 mps 731 mmHg 41%
    01:00 +28°C° 0 mm 2 mps 731 mmHg 47%
    02:00 +28°C° 0 mm 2 mps 731 mmHg 56%
    03:00 +27°C° 0 mm 2 mps 731 mmHg 65%
    04:00 +27°C° 0 mm 2 mps 731 mmHg 74%
    05:00 +27°C° 0 mm 1 mps 731 mmHg 75%
    06:00 +27°C° 0 mm 1 mps 732 mmHg 77%
    07:00 +27°C° 0 mm 1 mps 733 mmHg 78%
    08:00 +30°C° 0 mm 2 mps 733 mmHg 67%
    09:00 +32°C° 0 mm 2 mps 733 mmHg 56%
    10:00 +36°C° 0 mm 2 mps 734 mmHg 45%
    11:00 +38°C° 0 mm 2 mps 733 mmHg 38%
    12:00 +39°C° 0 mm 1 mps 732 mmHg 30%
    13:00 +41°C° 0 mm 1 mps 731 mmHg 22%
    14:00 +41°C° 0 mm 1 mps 731 mmHg 19%
    15:00 +41°C° 0 mm 1 mps 730 mmHg 17%
    16:00 +41°C° 0 mm 1 mps 730 mmHg 15%
    17:00 +39°C° 0 mm 1 mps 730 mmHg 18%
    18:00 +35°C° 0 mm 1 mps 730 mmHg 22%
    19:00 +33°C° 0 mm 1 mps 730 mmHg 25%
    20:00 +32°C° 0 mm 1 mps 731 mmHg 30%
    21:00 +31°C° 0 mm 1 mps 731 mmHg 35%
    22:00 +30°C° 0 mm 1 mps 732 mmHg 40%
    23:00 +29°C° 0 mm 1 mps 732 mmHg 44%

    20 October, Saturday

    Time Temperature Precipitation Wind Pressure Humidity
    00:00 +29°C° 0 mm 1 mps 731 mmHg 49%
    01:00 +28°C° 0 mm 1 mps 731 mmHg 53%
    02:00 +28°C° 0 mm 1 mps 731 mmHg 59%
    03:00 +27°C° 0 mm 1 mps 731 mmHg 65%
    04:00 +27°C° 0 mm 1 mps 731 mmHg 70%
    05:00 +27°C° 0 mm 1 mps 732 mmHg 72%
    06:00 +27°C° 0 mm 1 mps 732 mmHg 73%
    07:00 +27°C° 0 mm 1 mps 733 mmHg 74%
    08:00 +30°C° 0 mm 1 mps 733 mmHg 63%
    09:00 +33°C° 0 mm 1 mps 733 mmHg 51%
    10:00 +35°C° 0 mm 1 mps 734 mmHg 40%
    11:00 +37°C° 0 mm 1 mps 733 mmHg 33%
    12:00 +40°C° 0 mm 1 mps 732 mmHg 26%
    13:00 +41°C° 0 mm 1 mps 731 mmHg 19%
    14:00 +41°C° 0 mm 2 mps 731 mmHg 17%
    15:00 +41°C° 0 mm 2 mps 730 mmHg 16%
    16:00 +41°C° 0 mm 2 mps 730 mmHg 14%
    17:00 +39°C° 0 mm 1 mps 730 mmHg 17%
    18:00 +36°C° 0 mm 1 mps 730 mmHg 19%
    19:00 +33°C° 0 mm 1 mps 731 mmHg 21%
    20:00 +32°C° 0 mm 1 mps 731 mmHg 22%
    21:00 +32°C° 0 mm 1 mps 731 mmHg 23%
    22:00 +31°C° 0 mm 1 mps 732 mmHg 24%
    23:00 +30°C° 0 mm 1 mps 731 mmHg 25%

    21 October, Sunday

    Time Temperature Precipitation Wind Pressure Humidity
    00:00 +30°C° 0 mm 1 mps 731 mmHg 25%
    01:00 +29°C° 0 mm 1 mps 731 mmHg 25%
    02:00 +29°C° 0 mm 1 mps 731 mmHg 27%
    03:00 +28°C° 0 mm 1 mps 731 mmHg 28%
    04:00 +28°C° 0 mm 1 mps 731 mmHg 30%
    05:00 +28°C° 0 mm 1 mps 732 mmHg 32%
    06:00 +28°C° 0 mm 1 mps 732 mmHg 35%
    07:00 +29°C° 0 mm 1 mps 733 mmHg 37%
    08:00 +31°C° 0 mm 1 mps 733 mmHg 34%
    09:00 +35°C° 0 mm 2 mps 733 mmHg 31%
    10:00 +37°C° 0 mm 2 mps 733 mmHg 28%
    11:00 +39°C° 0 mm 2 mps 732 mmHg 26%
    12:00 +41°C° 0 mm 1 mps 731 mmHg 23%
    13:00 +42°C° 0 mm 1 mps 730 mmHg 21%
    14:00 +42°C° 0 mm 1 mps 730 mmHg 21%
    15:00 +41°C° 0 mm 1 mps 729 mmHg 22%
    16:00 +41°C° 0 mm 1 mps 729 mmHg 23%
    17:00 +39°C° 0 mm 1 mps 729 mmHg 25%
    18:00 +36°C° 0 mm 1 mps 729 mmHg 28%
    19:00 +34°C° 0 mm 1 mps 729 mmHg 31%
    20:00 +34°C° 0 mm 1 mps 730 mmHg 32%
    21:00 +33°C° 0 mm 1 mps 730 mmHg 33%
    22:00 +33°C° 0 mm 1 mps 731 mmHg 34%
    23:00 +32°C° 0 mm 1 mps 730 mmHg 35%

    22 October, Monday

    Time Temperature Precipitation Wind Pressure Humidity
    00:00 +32°C° 0 mm 1 mps 730 mmHg 36%
    01:00 +32°C° 0 mm 1 mps 730 mmHg 36%
    02:00 +31°C° 0 mm 1 mps 730 mmHg 37%
    03:00 +31°C° 0 mm 1 mps 730 mmHg 37%
    04:00 +31°C° 0 mm 1 mps 730 mmHg 37%
    05:00 +31°C° 0 mm 1 mps 731 mmHg 39%
    06:00 +31°C° 0 mm 1 mps 731 mmHg 41%
    07:00 +31°C° 0 mm 1 mps 732 mmHg 42%
    08:00 +32°C° 0 mm 1 mps 732 mmHg 41%
    09:00 +33°C° 0 mm 1 mps 732 mmHg 39%
    10:00 +35°C° 0 mm 2 mps 732 mmHg 38%
    11:00 +37°C° 0 mm 2 mps 731 mmHg 34%
    12:00 +39°C° 0 mm 2 mps 730 mmHg 30%
    13:00 +41°C° 0 mm 2 mps 729 mmHg 26%
    14:00 +41°C° 0 mm 2 mps 729 mmHg 25%
    15:00 +41°C° 0 mm 2 mps 728 mmHg 24%
    16:00 +41°C° 0 mm 2 mps 728 mmHg 23%
    17:00 +39°C° 0 mm 2 mps 728 mmHg 26%
    18:00 +36°C° 0 mm 1 mps 728 mmHg 29%
    19:00 +34°C° 0 mm 1 mps 729 mmHg 32%
    20:00 +33°C° 0 mm 1 mps 729 mmHg 32%
    21:00 +32°C° 0 mm 1 mps 730 mmHg 32%
    22:00 +32°C° 0 mm 1 mps 730 mmHg 32%
    23:00 +31°C° 0 mm 1 mps 730 mmHg 31%
    Show more